| time (UTC) | temp C | wind direction | speed KPH | gust KPH | rain 1hr cm | rain 24hr cm | rain mn cm | humidity % | barometer mb |
| 20260502163525 | 22 | 174 | 4.8 | 14.5 | 0.00 | 0.00 | 0.00 | 56 | 1014.1 |
| 20260502162522 | 23 | 203 | 4.8 | 16.1 | 0.00 | 0.00 | 0.00 | 52 | 1014.2 |
| 20260502161539 | 23 | 232 | 4.8 | 11.3 | 0.00 | 0.00 | 0.00 | 49 | 1014.3 |
| 20260502160535 | 24 | 206 | 3.2 | 11.3 | 0.00 | 0.00 | 0.00 | 50 | 1014.4 |
| 20260502151516 | 24 | 236 | 8.0 | 14.5 | 0.00 | 0.00 | 0.00 | 47 | 1014.9 |
| 20260502150533 | 24 | 238 | 6.4 | 14.5 | 0.00 | 0.00 | 0.00 | 48 | 1015.0 |
| 20260502130531 | 24 | 234 | 1.6 | 9.7 | 0.00 | 0.00 | 0.00 | 48 | 1016.1 |
| 20260502123519 | 24 | 235 | 9.7 | 16.1 | 0.00 | 0.00 | 0.00 | 48 | 1016.5 |
| 20260502122637 | 24 | 241 | 3.2 | 9.7 | 0.00 | 0.00 | 0.00 | 48 | 1016.6 |
| 20260502121531 | 25 | 233 | 4.8 | 14.5 | 0.00 | 0.00 | 0.00 | 47 | 1016.7 |
| 20260502120526 | 23 | 229 | 4.8 | 11.3 | 0.00 | 0.00 | 0.00 | 48 | 1016.7 |
| 20260502115522 | 23 | 230 | 6.4 | 11.3 | 0.00 | 0.00 | 0.00 | 48 | 1016.8 |
| 20260502114518 | 23 | 241 | 4.8 | 14.5 | 0.00 | 0.00 | 0.00 | 49 | 1017.0 |
| 20260502113554 | 22 | 234 | 6.4 | 12.9 | 0.00 | 0.00 | 0.00 | 49 | 1017.1 |
| 20260502112553 | 22 | 254 | 6.4 | 12.9 | 0.00 | 0.00 | 0.00 | 50 | 1017.1 |
| 20260502111528 | 22 | 236 | 8.0 | 16.1 | 0.00 | 0.00 | 0.00 | 49 | 1017.2 |
| 20260502110544 | 22 | 231 | 1.6 | 9.7 | 0.00 | 0.00 | 0.00 | 48 | 1017.2 |
| 20260502105521 | 22 | 240 | 4.8 | 12.9 | 0.00 | 0.00 | 0.00 | 48 | 1017.3 |
| 20260502104557 | 22 | 234 | 4.8 | 11.3 | 0.00 | 0.00 | 0.00 | 48 | 1017.4 |
| 20260502103532 | 22 | 239 | 9.7 | 17.7 | 0.00 | 0.00 | 0.00 | 48 | 1017.5 |
| 20260502102528 | 22 | 241 | 6.4 | 12.9 | 0.00 | 0.00 | 0.00 | 46 | 1017.6 |
| 20260502101525 | 21 | 239 | 4.8 | 12.9 | 0.00 | 0.00 | 0.00 | 46 | 1017.7 |
| 20260502100521 | 21 | 235 | 6.4 | 14.5 | 0.00 | 0.00 | 0.00 | 46 | 1017.8 |
| 20260502091523 | 22 | 232 | 3.2 | 11.3 | 0.00 | 0.00 | 0.00 | 44 | 1017.9 |
| 20260502090539 | 21 | 230 | 6.4 | 17.7 | 0.00 | 0.00 | 0.00 | 45 | 1018.0 |
| 20260502071536 | 19 | 7 | 1.6 | 9.7 | 0.00 | 0.00 | 0.00 | 43 | 1018.1 |
| 20260502070533 | 18 | 14 | 3.2 | 6.4 | 0.00 | 0.00 | 0.00 | 44 | 1018.0 |
| 20260502065529 | 18 | 7 | 1.6 | 3.2 | 0.00 | 0.00 | 0.00 | 47 | 1018.2 |
| 20260502064525 | 18 | 16 | 1.6 | 4.8 | 0.00 | 0.00 | 0.00 | 48 | 1018.2 |
| 20260502063520 | 17 | 6 | 1.6 | 9.7 | 0.00 | 0.00 | 0.00 | 49 | 1018.3 |
| 20260502062517 | 17 | 25 | 1.6 | 11.3 | 0.00 | 0.00 | 0.00 | 49 | 1018.2 |
| 20260502061534 | 17 | 19 | 1.6 | 6.4 | 0.00 | 0.00 | 0.00 | 50 | 1018.2 |
| 20260502060529 | 16 | 29 | 1.6 | 6.4 | 0.00 | 0.00 | 0.00 | 51 | 1018.1 |
| 20260502055526 | 16 | 23 | 1.6 | 4.8 | 0.00 | 0.00 | 0.00 | 52 | 1018.3 |
| 20260502054522 | 15 | 26 | 1.6 | 3.2 | 0.00 | 0.00 | 0.00 | 53 | 1018.2 |
| 20260502053519 | 15 | 25 | 1.6 | 6.4 | 0.00 | 0.00 | 0.00 | 54 | 1018.2 |
| 20260502052515 | 14 | 22 | 0.0 | 3.2 | 0.00 | 0.00 | 0.00 | 56 | 1018.2 |
| 20260502051553 | 13 | 24 | 0.0 | 3.2 | 0.00 | 0.00 | 0.00 | 57 | 1018.2 |
| 20260502050548 | 12 | 0.0 | 0.0 | 0.00 | 0.00 | 0.00 | 59 | 1018.2 | |
| 20260502045524 | 12 | 22 | 0.0 | 3.2 | 0.00 | 0.00 | 0.00 | 60 | 1018.2 |
| 20260502044521 | 11 | 0.0 | 0.0 | 0.00 | 0.00 | 0.00 | 64 | 1018.2 | |
| 20260502043518 | 11 | 21 | 0.0 | 3.2 | 0.00 | 0.00 | 0.00 | 64 | 1018.3 |
| 20260502042534 | 11 | 21 | 0.0 | 1.6 | 0.00 | 0.00 | 0.00 | 65 | 1018.4 |
| 20260502041530 | 11 | 21 | 0.0 | 3.2 | 0.00 | 0.00 | 0.00 | 65 | 1018.5 |
| 20260502040528 | 11 | 0.0 | 0.0 | 0.00 | 0.00 | 0.00 | 65 | 1018.5 | |
| 20260502035524 | 11 | 0.0 | 0.0 | 0.00 | 0.00 | 0.00 | 64 | 1018.5 | |
| 20260502034521 | 11 | 21 | 0.0 | 1.6 | 0.00 | 0.00 | 0.00 | 64 | 1018.7 |
| 20260502033517 | 11 | 0.0 | 0.0 | 0.00 | 0.00 | 0.00 | 63 | 1018.7 | |
| 20260502032534 | 11 | 21 | 0.0 | 1.6 | 0.00 | 0.00 | 0.00 | 62 | 1018.8 |
| 20260502031530 | 11 | 21 | 0.0 | 1.6 | 0.00 | 0.00 | 0.00 | 62 | 1018.7 |
| 20260502030527 | 11 | 20 | 0.0 | 1.6 | 0.00 | 0.00 | 0.00 | 62 | 1018.8 |
| 20260502025524 | 11 | 23 | 0.0 | 3.2 | 0.00 | 0.00 | 0.00 | 61 | 1018.9 |
| 20260502024521 | 11 | 23 | 1.6 | 3.2 | 0.00 | 0.00 | 0.00 | 61 | 1018.9 |
| 20260502023537 | 12 | 0.0 | 0.0 | 0.00 | 0.00 | 0.00 | 61 | 1018.9 | |
| 20260502022554 | 12 | 0.0 | 0.0 | 0.00 | 0.00 | 0.00 | 60 | 1019.0 | |
| 20260502021531 | 12 | 20 | 1.6 | 3.2 | 0.00 | 0.00 | 0.00 | 59 | 1019.1 |
| 20260502020527 | 12 | 21 | 0.0 | 1.6 | 0.00 | 0.00 | 0.00 | 58 | 1019.2 |
| 20260502015524 | 12 | 24 | 0.0 | 3.2 | 0.00 | 0.00 | 0.00 | 58 | 1019.3 |
| 20260502014520 | 12 | 21 | 0.0 | 1.6 | 0.00 | 0.00 | 0.00 | 57 | 1019.4 |
| 20260502013517 | 12 | 0.0 | 0.0 | 0.00 | 0.00 | 0.00 | 57 | 1019.5 | |
| 20260502012533 | 13 | 0.0 | 0.0 | 0.00 | 0.00 | 0.00 | 56 | 1019.6 | |
| 20260502011549 | 13 | 20 | 0.0 | 1.6 | 0.00 | 0.00 | 0.00 | 55 | 1019.7 |
| 20260502010525 | 13 | 20 | 0.0 | 3.2 | 0.00 | 0.00 | 0.00 | 54 | 1019.8 |
| 20260502005522 | 13 | 23 | 0.0 | 1.6 | 0.00 | 0.00 | 0.00 | 54 | 1019.9 |
| 20260502004518 | 14 | 24 | 1.6 | 3.2 | 0.00 | 0.00 | 0.00 | 52 | 1020.0 |
| 20260502003535 | 13 | 25 | 1.6 | 3.2 | 0.00 | 0.00 | 0.00 | 52 | 1020.0 |
| 20260502002531 | 14 | 26 | 1.6 | 3.2 | 0.00 | 0.00 | 0.00 | 52 | 1020.1 |
| 20260502001528 | 14 | 30 | 1.6 | 3.2 | 0.00 | 0.00 | 0.00 | 51 | 1020.2 |
| 20260502000524 | 14 | 87 | 0.0 | 1.6 | 0.00 | 0.00 | 0.00 | 51 | 1020.3 |
| 20260501235520 | 15 | 159 | 0.0 | 1.6 | 0.00 | 0.00 | 0.00 | 50 | 1020.3 |
| 20260501234537 | 15 | 138 | 1.6 | 3.2 | 0.00 | 0.00 | 0.00 | 49 | 1020.4 |
| 20260501233534 | 15 | 134 | 1.6 | 3.2 | 0.00 | 0.00 | 0.00 | 48 | 1020.4 |
| 20260501232530 | 15 | 139 | 0.0 | 3.2 | 0.00 | 0.00 | 0.00 | 48 | 1020.5 |
| 20260501231526 | 15 | 126 | 1.6 | 3.2 | 0.00 | 0.00 | 0.00 | 47 | 1020.4 |
| 20260501230523 | 15 | 133 | 0.0 | 3.2 | 0.00 | 0.00 | 0.00 | 46 | 1020.5 |
| 20260501225519 | 16 | 132 | 1.6 | 3.2 | 0.00 | 0.00 | 0.00 | 46 | 1020.5 |
| 20260501224516 | 16 | 123 | 1.6 | 3.2 | 0.00 | 0.00 | 0.00 | 46 | 1020.5 |
| 20260501223532 | 16 | 146 | 0.0 | 3.2 | 0.00 | 0.00 | 0.00 | 45 | 1020.6 |
| 20260501222529 | 16 | 150 | 1.6 | 4.8 | 0.00 | 0.00 | 0.00 | 45 | 1020.7 |
| 20260501221525 | 16 | 153 | 0.0 | 4.8 | 0.00 | 0.00 | 0.00 | 45 | 1020.8 |
| 20260501220522 | 16 | 131 | 0.0 | 1.6 | 0.00 | 0.00 | 0.00 | 45 | 1020.8 |
| 20260501215539 | 16 | 121 | 0.0 | 3.2 | 0.00 | 0.00 | 0.00 | 44 | 1020.8 |
| 20260501214535 | 16 | 136 | 1.6 | 3.2 | 0.00 | 0.00 | 0.00 | 43 | 1020.8 |
| 20260501213531 | 17 | 135 | 1.6 | 3.2 | 0.00 | 0.00 | 0.00 | 43 | 1020.8 |
| 20260501212528 | 17 | 0.0 | 0.0 | 0.00 | 0.00 | 0.00 | 42 | 1020.8 | |
| 20260501211545 | 17 | 142 | 0.0 | 1.6 | 0.00 | 0.00 | 0.00 | 41 | 1020.8 |
| 20260501210521 | 17 | 172 | 0.0 | 1.6 | 0.00 | 0.00 | 0.00 | 40 | 1020.9 |
| 20260501205517 | 17 | 151 | 1.6 | 3.2 | 0.00 | 0.00 | 0.00 | 39 | 1021.0 |
| 20260501204553 | 17 | 150 | 1.6 | 4.8 | 0.00 | 0.00 | 0.00 | 40 | 1021.1 |
| 20260501203529 | 17 | 171 | 0.0 | 3.2 | 0.00 | 0.00 | 0.00 | 40 | 1021.0 |
| 20260501202525 | 17 | 152 | 0.0 | 3.2 | 0.00 | 0.00 | 0.00 | 41 | 1021.1 |
| 20260501201521 | 17 | 0.0 | 0.0 | 0.00 | 0.00 | 0.00 | 41 | 1021.1 | |
| 20260501200518 | 18 | 0.0 | 0.0 | 0.00 | 0.00 | 0.00 | 40 | 1021.1 | |
| 20260501195554 | 18 | 0.0 | 0.0 | 0.00 | 0.00 | 0.00 | 39 | 1021.1 | |
| 20260501194552 | 19 | 0.0 | 0.0 | 0.00 | 0.00 | 0.00 | 37 | 1020.9 | |
| 20260501193528 | 19 | 0.0 | 0.0 | 0.00 | 0.00 | 0.00 | 36 | 1021.0 | |
| 20260501192525 | 20 | 157 | 0.0 | 1.6 | 0.00 | 0.00 | 0.00 | 35 | 1021.0 |
| 20260501191521 | 20 | 170 | 1.6 | 3.2 | 0.00 | 0.00 | 0.00 | 34 | 1021.0 |
| 20260501190538 | 21 | 162 | 0.0 | 3.2 | 0.00 | 0.00 | 0.00 | 33 | 1021.0 |
| 20260501185534 | 21 | 167 | 1.6 | 3.2 | 0.00 | 0.00 | 0.00 | 33 | 1021.0 |
| 20260501184530 | 21 | 174 | 0.0 | 3.2 | 0.00 | 0.00 | 0.00 | 32 | 1021.0 |
| 20260501183527 | 22 | 169 | 1.6 | 3.2 | 0.00 | 0.00 | 0.00 | 31 | 1020.9 |
| 20260501182524 | 22 | 188 | 3.2 | 6.4 | 0.00 | 0.00 | 0.00 | 30 | 1020.8 |
| 20260501181520 | 22 | 182 | 1.6 | 6.4 | 0.00 | 0.00 | 0.00 | 30 | 1020.8 |
| 20260501180517 | 23 | 185 | 1.6 | 6.4 | 0.00 | 0.00 | 0.00 | 28 | 1020.9 |
| 20260501175533 | 23 | 175 | 3.2 | 9.7 | 0.00 | 0.00 | 0.00 | 28 | 1020.7 |
| 20260501174530 | 23 | 176 | 3.2 | 11.3 | 0.00 | 0.00 | 0.00 | 27 | 1020.8 |
| 20260501173546 | 24 | 191 | 3.2 | 11.3 | 0.00 | 0.00 | 0.00 | 27 | 1020.7 |
| 20260501172522 | 24 | 164 | 4.8 | 12.9 | 0.00 | 0.00 | 0.00 | 27 | 1020.8 |
| 20260501171519 | 24 | 185 | 3.2 | 14.5 | 0.00 | 0.00 | 0.00 | 27 | 1020.7 |
| 20260501170516 | 24 | 145 | 4.8 | 11.3 | 0.00 | 0.00 | 0.00 | 27 | 1020.8 |
| 20260501165532 | 25 | 162 | 1.6 | 6.4 | 0.00 | 0.00 | 0.00 | 26 | 1020.8 |
| 20260501164548 | 25 | 188 | 1.6 | 6.4 | 0.00 | 0.00 | 0.00 | 26 | 1020.9 |